Stations météo

réclame
Mon MeteoGroup
Santander, Espagne (8023): Température de l'air & dewpoint: 16.06.2018 09:00:00 - 22.06.2018 09:00:00 (CEST)Santander, Espagne (8023): Vitesse du vent: 16.06.2018 09:00:00 - 22.06.2018 09:00:00 (CEST)Santander, Espagne (8023): Direction du vent: 16.06.2018 09:00:00 - 22.06.2018 09:00:00 (CEST)Santander, Espagne (8023): reduced air pressure: 16.06.2018 09:00:00 - 22.06.2018 09:00:00 (CEST)Santander, Espagne (8023): visibility: 16.06.2018 09:00:00 - 22.06.2018 09:00:00 (CEST)Santander, Espagne (8023): Quantités de précipitations: 16.06.2018 09:00:00 - 22.06.2018 09:00:00 (CEST)
Date & Time tt [°C] td [°C] ff [km/h] ff [knt] dd ppp [hPa] vv [km] rr [mm]
22.06.2018 09:00:00 19,2 18,4 8 4 W 1022,7 10 0,0
22.06.2018 08:00:00 18,7 18,2 8 4 W 1022,5 8 -
22.06.2018 07:00:00 18,2 17,7 8 4 WSW 1022,4 7 0,0
22.06.2018 06:00:00 18,2 17,6 5 3 W 1022,2 6 0,0
22.06.2018 05:00:00 18,7 18,0 2 1 NW 1022,2 10 -
22.06.2018 04:00:00 18,8 18,1 5 3 NW 1022,6 7 0,0
22.06.2018 03:00:00 18,9 18,2 5 3 NNW 1022,9 8 0,0
22.06.2018 02:00:00 19,0 18,5 5 3 N 1023,1 8 -
22.06.2018 01:00:00 19,0 18,5 9 5 N 1023,5 6 0,0
22.06.2018 00:00:00 19,1 18,6 9 5 N 1023,5 7 0,0
21.06.2018 23:00:00 19,1 18,6 11 6 N 1023,1 10 -
21.06.2018 22:00:00 19,2 18,7 9 5 N 1022,7 7 0,0
21.06.2018 21:00:00 19,2 18,9 8 4 N 1022,4 6 0,0
21.06.2018 20:00:00 19,3 18,8 16 9 W 1022,3 1,0 -
21.06.2018 19:00:00 19,9 18,7 18 10 W 1021,6 9 0,0
21.06.2018 18:00:00 20,6 18,9 18 10 W 1021,7 13 0,0
21.06.2018 17:00:00 21,5 19,1 21 11 W 1021,4 15 -
21.06.2018 16:00:00 21,8 19,0 18 10 W 1021,6 17 0,0
21.06.2018 15:00:00 21,3 19,0 18 10 W 1021,7 16 0,0
21.06.2018 14:00:00 20,4 18,7 18 10 W 1021,9 12 -
21.06.2018 13:00:00 21,0 19,5 18 10 W 1021,8 15 0,0
21.06.2018 12:00:00 20,4 18,7 18 10 W 1021,6 14 0,0
21.06.2018 11:00:00 19,4 18,7 16 9 W 1021,3 5 -
21.06.2018 10:00:00 19,1 18,4 13 7 W 1020,9 4,1 0,0
21.06.2018 09:00:00 19,1 18,3 9 5 W 1020,5 6 0,0
21.06.2018 08:00:00 18,9 18,1 8 4 WSW 1020,5 4,0 -
21.06.2018 07:00:00 18,8 18,0 9 5 WSW 1020,6 8 0,0
21.06.2018 06:00:00 18,7 17,9 15 8 W 1020,6 8 0,0
21.06.2018 05:00:00 18,8 17,8 13 7 WSW 1020,5 8 -
21.06.2018 04:00:00 18,9 17,7 11 6 WSW 1020,4 7 0,0
21.06.2018 03:00:00 19,1 17,8 9 5 WSW 1020,9 10 0,0
21.06.2018 02:00:00 19,2 17,7 9 5 WSW 1020,9 10 -
21.06.2018 01:00:00 19,2 17,9 11 6 W 1021,0 11 0,0
21.06.2018 00:00:00 19,1 17,9 13 7 W 1020,9 10 0,0
20.06.2018 23:00:00 19,3 18,3 13 7 W 1020,3 8 -
20.06.2018 22:00:00 19,3 18,1 11 6 W 1019,9 9 0,0
20.06.2018 21:00:00 19,7 18,5 13 7 WNW 1019,1 8 0,0
20.06.2018 20:00:00 20,0 18,3 13 7 WNW 1018,7 8 -
20.06.2018 19:00:00 20,5 18,1 13 7 WNW 1018,5 10 0,0
20.06.2018 18:00:00 20,4 18,2 13 7 NW 1018,7 10 0,0
20.06.2018 17:00:00 20,7 18,3 13 7 NW 1018,8 8 -
20.06.2018 16:00:00 20,7 18,3 11 6 NW 1018,8 9 0,0
20.06.2018 15:00:00 20,6 18,2 11 6 NW 1018,8 8 0,0
20.06.2018 14:00:00 21,0 18,9 11 6 NW 1019,0 8 -
20.06.2018 13:00:00 20,4 18,5 9 5 NNW 1019,2 8 0,0
20.06.2018 12:00:00 20,2 18,5 5 3 NNW 1019,2 8 0,0
20.06.2018 11:00:00 20,0 18,0 9 5 NW 1018,9 7 -
20.06.2018 10:00:00 19,8 17,9 8 4 W 1018,8 12 0,0
20.06.2018 09:00:00 19,0 17,7 11 6 W 1018,8 8 0,0
20.06.2018 08:00:00 18,0 17,0 9 5 WSW 1018,7 9 -
20.06.2018 07:00:00 17,1 16,6 5 3 S 1018,3 8 0,0
20.06.2018 06:00:00 17,0 16,5 5 3 E 1018,3 6 0,0
20.06.2018 05:00:00 17,2 16,6 5 3 ENE 1018,4 12 -
20.06.2018 04:00:00 17,1 16,3 8 4 E 1018,5 10 0,0
20.06.2018 03:00:00 17,6 16,6 9 5 E 1019,1 11 0,0
20.06.2018 02:00:00 18,1 17,1 15 8 E 1019,4 15 -
20.06.2018 01:00:00 18,5 16,8 13 7 E 1020,0 10 0,0
20.06.2018 00:00:00 18,4 16,7 16 9 E 1020,3 12 0,0
19.06.2018 23:00:00 18,4 16,6 21 11 E 1020,5 20 -
19.06.2018 22:00:00 18,3 16,8 31 17 E 1020,0 15 0,0
19.06.2018 21:00:00 18,5 16,8 29 16 E 1020,3 16 0,0
19.06.2018 20:00:00 19,1 16,9 31 17 E 1020,4 10 -
19.06.2018 19:00:00 19,0 16,6 35 19 E 1020,6 18 0,0
19.06.2018 18:00:00 19,5 16,7 39 21 E 1021,2 20 0,0
19.06.2018 17:00:00 19,7 16,3 34 18 E 1021,8 12 -
19.06.2018 16:00:00 19,6 17,2 29 16 E 1022,1 19 0,0
19.06.2018 15:00:00 20,3 17,5 28 15 ENE 1022,6 20 0,0
19.06.2018 14:00:00 19,2 17,2 24 13 ENE 1023,3 14 -
19.06.2018 13:00:00 18,8 16,8 21 11 ENE 1024,0 19 0,0
19.06.2018 12:00:00 17,9 16,2 16 9 E 1024,5 19 0,0
19.06.2018 11:00:00 18,1 16,3 16 9 ENE 1024,6 15 -
19.06.2018 10:00:00 18,1 16,3 15 8 E 1025,0 20 0,0
19.06.2018 09:00:00 16,7 16,2 9 5 SSE 1025,4 20 0,0
19.06.2018 08:00:00 16,3 15,8 13 7 SE 1025,6 18 -
19.06.2018 07:00:00 16,2 15,7 9 5 E 1025,6 8 0,4
19.06.2018 06:00:00 16,2 15,7 8 4 ESE 1025,6 9 0,2
19.06.2018 05:00:00 15,9 15,3 8 4 ESE 1025,8 20 -
19.06.2018 04:00:00 16,1 15,6 13 7 NE 1026,1 7 0,4
19.06.2018 03:00:00 16,7 15,9 13 7 NNE 1026,1 3,9 0,4
19.06.2018 02:00:00 16,7 15,9 4 2 S 1026,6 15 -
19.06.2018 01:00:00 16,8 16,0 2 1 NNE 1027,1 3,0 0,0
19.06.2018 00:00:00 17,3 15,6 2 1 N 1027,3 12 0,0
18.06.2018 23:00:00 17,6 15,4 2 1 WSW 1027,2 20 -
18.06.2018 22:00:00 17,8 15,6 4 2 W 1027,1 14 0,0
18.06.2018 21:00:00 18,2 15,4 5 3 W 1027,0 20 0,0
18.06.2018 20:00:00 18,6 15,7 4 2 NNW 1027,0 15 -
18.06.2018 19:00:00 18,6 16,0 5 3 NNE 1027,2 17 0,0
18.06.2018 18:00:00 18,2 16,0 13 7 NNE 1027,6 19 0,0
18.06.2018 17:00:00 17,9 16,4 11 6 NNE 1027,7 15 -
18.06.2018 16:00:00 17,6 16,6 15 8 N 1027,7 18 0,0
18.06.2018 15:00:00 18,1 16,3 21 11 N 1027,6 16 0,0
18.06.2018 14:00:00 19,5 16,9 13 7 WNW 1027,5 15 -
18.06.2018 13:00:00 19,7 16,9 16 9 W 1027,6 19 0,0
18.06.2018 12:00:00 18,6 15,8 18 10 W 1027,6 19 0,0
18.06.2018 11:00:00 18,9 15,4 15 8 WNW 1027,6 12 -
18.06.2018 10:00:00 18,3 14,8 16 9 W 1027,5 18 0,0
18.06.2018 09:00:00 16,9 14,7 11 6 WSW 1027,4 17 0,0
18.06.2018 08:00:00 16,2 14,7 9 5 WSW 1027,2 20 -
18.06.2018 07:00:00 15,8 14,3 9 5 SW 1026,8 15 0,0
18.06.2018 06:00:00 15,6 14,1 11 6 SW 1026,6 14 0,0
18.06.2018 05:00:00 15,9 14,3 9 5 SW 1026,6 15 -
18.06.2018 04:00:00 16,2 14,2 8 4 SW 1026,6 16 0,0
18.06.2018 03:00:00 16,3 14,3 9 5 SSW 1026,6 15 0,0
18.06.2018 02:00:00 16,5 14,1 5 3 WSW 1026,9 20 -
18.06.2018 01:00:00 16,7 14,2 5 3 WSW 1027,0 19 0,0
18.06.2018 00:00:00 16,8 14,1 8 4 WSW 1027,2 18 0,0
17.06.2018 23:00:00 17,1 14,2 4 2 WSW 1026,9 25 -
17.06.2018 22:00:00 17,6 14,1 5 3 NNW 1026,6 12 0,0
17.06.2018 21:00:00 18,8 14,1 5 3 NNW 1026,4 15 0,0
17.06.2018 20:00:00 19,0 14,3 9 5 N 1026,3 20 -
17.06.2018 19:00:00 19,3 14,1 8 4 N 1025,9 15 0,0
17.06.2018 18:00:00 19,4 14,6 9 5 N 1026,0 16 0,0
17.06.2018 17:00:00 19,3 14,3 11 6 N 1025,8 20 -
17.06.2018 16:00:00 19,2 14,2 13 7 N 1025,7 19 0,0
17.06.2018 15:00:00 19,1 14,4 11 6 N 1025,6 17 0,0
17.06.2018 14:00:00 18,9 14,2 9 5 NNE 1025,8 20 -
17.06.2018 13:00:00 18,9 14,8 11 6 N 1025,7 15 0,0
17.06.2018 12:00:00 18,7 15,0 11 6 N 1025,8 15 0,0
17.06.2018 11:00:00 18,1 15,0 9 5 N 1025,5 18 -
17.06.2018 10:00:00 18,6 15,5 11 6 W 1025,3 19 0,0
17.06.2018 09:00:00 17,1 15,4 9 5 WSW 1025,0 19 0,0
17.06.2018 08:00:00 16,3 15,2 8 4 WSW 1024,6 12 -
17.06.2018 07:00:00 16,1 15,0 4 2 SW 1024,0 11 0,0
17.06.2018 06:00:00 16,1 14,5 5 3 NW 1023,7 7 0,0
17.06.2018 05:00:00 16,4 14,4 8 4 WSW 1023,6 12 -
17.06.2018 04:00:00 16,2 14,2 9 5 WSW 1023,6 18 0,0
17.06.2018 03:00:00 16,1 14,1 9 5 WSW 1023,6 17 0,0
17.06.2018 02:00:00 16,4 14,2 9 5 WSW 1023,7 20 -
17.06.2018 01:00:00 16,7 14,2 8 4 WSW 1023,6 17 0,0
17.06.2018 00:00:00 16,7 14,0 5 3 WSW 1023,9 19 0,0
16.06.2018 23:00:00 17,1 14,0 5 3 W 1023,8 20 -
16.06.2018 22:00:00 17,3 13,8 4 2 NNW 1023,2 19 0,0
16.06.2018 21:00:00 18,1 13,6 8 4 N 1022,7 17 0,0
16.06.2018 20:00:00 18,1 13,8 8 4 NNW 1022,4 30 -
16.06.2018 19:00:00 18,0 14,1 13 7 N 1022,0 18 0,0
16.06.2018 18:00:00 18,8 14,5 13 7 N 1021,7 18 0,0
16.06.2018 17:00:00 19,0 14,5 11 6 NNE 1021,4 40 -
16.06.2018 16:00:00 18,9 14,2 13 7 NNE 1021,3 19 0,0
16.06.2018 15:00:00 18,8 14,9 11 6 NNE 1021,5 19 0,0
16.06.2018 14:00:00 18,5 15,4 11 6 NNW 1021,6 20 -
16.06.2018 13:00:00 18,2 16,0 11 6 NW 1021,6 14 0,0
16.06.2018 12:00:00 18,3 16,3 13 7 WNW 1021,4 16 0,0
16.06.2018 11:00:00 17,2 15,9 8 4 W 1021,2 15 -
16.06.2018 10:00:00 16,3 15,7 9 5 WSW 1020,7 13 0,0
16.06.2018 09:00:00 15,6 15,1 9 5 WSW 1020,7 7 0,0

tt = Température de l'air
td = dewpoint
ff = Vitesse du vent
dd = Direction du vent
ppp = reduced air pressure
vv = visibility
rr = Quantités de précipitations

stations d'obs. à proximité